GOES 7 [-]

Last updated on Nov. 21, 2019, 4:15 a.m. UTC

1 17561U 87022A   19323.94071101  .00000009  00000-0  00000-0 0  9999
2 17561  14.9069 356.9049 0006695 345.0913 124.9625  0.99889117102978
UTC
Height (km)
Latitude
Longitude
Inclination
Orbital Period
UTC large
Height (km)
Speed (km/s)
/
Latitude / Longitude
Inclination (degrees)
Orbital Period (minutes)
Azimuth
Elevation
Range (km)
Doppler Factor
iOS Compass Heading
iOS Angle

Next 30 passes for location: Hong Kong

Rise time Rise Azimuth (degrees) Set time Set Azimuth (degrees) Duration Max altitude (degrees)

No matching passes for this satellites